SCP
0 0 0 0 0 0 0 0 0 0 0 0 0 0 0 0 0 0 0 0 0 -0 -0 -0 -0 -0 0 0 0 0 0 0 0 0 0 0 0 0 0 0 0 0 0
0 0 0 0 0 0 0 0 0 0 0 0 0 0 0 0 0 0 0 0 0 0 0 0 -0 0 0 0 0 0 0 0 0 0 0 0 0 0 0 0 0 0 0
0 0 0 0 0 0 0 0 0 0 0 0 0 0 0 0 0 0 0 0 0 0 0 0 0 0 0 0 0 0 0 0 0 0 0 0 0 0 0 0 0 0 0
0 0 0 0 0 0 0 0 0 0 0 0 0 0 0 0 0 0 0 0 0 0 0 0 0 0 0 0 0 0 0 0 0 0 0 0 0 0 0 0 0 0 0
0 0 0 0 0 0 0 0 0 0 0 0 0 0 0 0 0 0 0 0 0 0 0 0 0 0 0 0 0 0 0 0 0 0 0 0 0 0 0 0 0 0 0
0 0 0 0 0 0 0 0 0 0 0 0 0 0 0 0 0 0 0 0 0 0 0 0 0 0 0 0 0 0 0 0 0 0 0 0 0 0 0 0 0 0 0
0 0 0 0 0 0 0 0 0 0 0 0 0 0 0 0 0 0 0 0 0 0 0 0 0 0 0 0 0 0 0 0 0 0 0 0 0 0 0 0 0 0 0
0 0 0 0 0 0 0 0 0 0 0 0 0 0 0 0 0 0 0 0 0 0 0 0 0 0 0 0 0 0 0 0 0 0 0 0 0 0 0 0 0 0 0
0 0 0 0 0 0 0 0 0 0 0 0 0 0 0 0 0 0 0 0 0 0 0 0 0 0 0 0 0 0 0 0 0 0 0 0 0 0 0 0 0 0 0
0 0 0 0 0 0 0 0 0 0 0 0 0 0 0 0 0 0 0 0 0 0 0 0 0 0 0 0 0 0 0 0 0 0 0 0 0 0 0 0 0 0 0
0 0 0 0 0 0 0 0 0 0 0 0 0 0 0 0 0 0 0 0 0 0 0 0 0 0 0 0 0 0 0 0 0 0 0 0 0 0 0 0 0 0 0
0 0 0 0 0 0 0 0 0 0 0 0 0 0 0 0 0 0 0 0 0 0 0 0 0 0 0 0 0 0 0 0 0 0 0 0 0 0 0 0 0 0 0
0 0 0 0 0 0 0 0 0 0 0 0 0 0 0 0 0 0 0 0 0 0 0 0 0 0 0 0 0 0 0 0 0 0 0 0 0 0 0 0 0 0 0
0 0 0 0 0 0 0 0 0 0 0 0 0 0 0 0 0 0 0 0 0 0 0 0 0 0 0 0 0 0 0 0 0 0 0 0 0 0 0 0 0 0 0
0 0 0 0 0 -0 -0 0 -0 -0 -0 -0 -0 0 0 0 0 0 0 0 0 0 0 0 0 0 0 0 0 0 0 0 0 0 0 0 0 0 0 0 0 0 0
0 0 0 -0 -0 -0 -0 0 -0 -0 -0 0 0 0 0 0 0 0 0 0 0 0 0 0 0 0 0 0 0 0 0 -0 0 0 0 0 0 0 0 0 0 0 0
0 0 -0 -0 -0 -0 0 0 0 0 0 -0 0 0 0 0 0 0 0 0 0 0 0 0 0 0 0 0 0 0 0 0 0 0 0 0 0 0 0 0 -0 -0 -0
0 -0 0 0 0 -0 -0 -0 -0 -0 -0 0 0 0 0 0 0 0 0 0 0 0 0 0 0 0 0 0 0 0 0 0 0 0 0 0 0 0 0 0 -0 -0 0
0 -0 0 0 -0 -0 -0 -0 -0 0 0 0 0 0 0 0 0 0 0 0 0 0 0 0 0 0 0 0 0 0 0 0 0 0 0 0 0 0 0 0 0 -0 0
0 -0 -0 -0 0 0 -0 -0 -0 0 0 0 0 0 0 0 0 0 0 0 0 0 0 0 0 0 0 0 0 0 0 0 0 0 0 0 0 0 0 0 0 0 0
0 0 -0 -0 -0 -0 -0 -0 -0 -0 0 0 0 0 0 0 0 0 0 0 0 0 0 0 0 0 -0 -0 0 0 0 0 0 0 0 0 0 0 0 0 0 0 0
0 0 0 -0 -0 0 0 -0 -0 -0 0 0 0 0 0 0 0 0 0 0 0 0 0 0 0 -0 -0 -0 -0 -0 -0 0 -0 0 0 0 0 0 0 0 0 0 0
0 0 0 -0 -0 -0 -0 0 0 0 0 0 0 0 0 0 0 0 0 0 0 0 0 0 0 -0 -0 -0 -0 0 0 -0 -0 -0 -0 0 0 0 0 0 0 0 0
0 0 -0 -0 -0 -0 0 0 0 0 0 0 0 0 0 0 0 0 0 0 0 0 0 0 0 0 -0 0 0 0 0 0 -0 -0 -0 0 -0 -0 -0 0 0 -0 0
0 0 -0 -0 -0 0 0 0 0 0 0 0 0 0 0 0 0 0 0 0 0 0 0 0 0 -0 -0 -0 -0 -0 -0 -0 0 -0 0 0 -0 -0 -0 -0 0 0 0
0 0 -0 -0 -0 0 0 0 0 0 0 0 0 0 0 0 0 0 0 0 0 0 0 0 0 0 -0 -0 -0 -0 -0 -0 0 0 0 -0 -0 -0 -0 0 -0 0 -0
Wind_Speed_500mb
28 26 17 15 15 15 15 19 14 13 12 8 12 16 17 22 32 28 24 36 61 70 62 64 64 68 66 63 52 52 55 56 66 71 67 62 66 64 60 56 51 51 54
34 32 30 26 25 22 21 24 21 17 14 6 3 1 3 10 14 20 24 26 38 44 56 61 69 57 55 53 56 60 60 62 72 82 80 82 82 76 77 75 70 67 64
31 28 27 25 20 18 14 8 7 7 7 9 8 4 5 7 8 15 22 24 27 32 40 48 53 58 62 64 66 67 68 73 80 86 88 82 78 73 75 77 77 72 68
27 22 17 14 10 7 6 4 1 3 3 4 7 9 11 12 18 20 21 25 28 32 35 39 43 47 52 56 60 63 65 66 67 72 78 77 72 64 65 72 84 84 83
13 11 8 4 3 4 7 8 9 10 15 20 23 25 28 33 35 38 41 44 46 49 52 56 60 65 67 69 73 77 78 80 82 86 92 91 88 83 81 76 72 72 77
8 6 3 3 7 11 15 20 24 28 33 36 40 41 42 43 45 49 53 55 57 61 66 68 71 76 80 83 84 82 76 76 81 80 89 90 85 78 76 74 69 74 81
14 12 12 15 20 25 29 34 39 42 45 47 47 47 47 47 50 51 53 56 59 62 65 68 72 73 75 78 79 80 79 76 75 79 88 90 90 86 83 79 78 81 83
16 20 26 29 32 35 39 43 45 46 47 48 49 51 55 56 58 61 63 63 62 59 57 56 58 60 60 62 66 68 69 68 67 67 66 67 67 66 68 72 74 82 87
21 25 29 34 38 41 46 49 48 50 50 51 55 60 59 55 52 49 49 48 48 46 46 47 49 52 50 51 56 61 63 61 57 61 63 65 68 68 59 63 71 68 69
14 21 28 35 42 47 51 52 55 60 63 66 66 58 50 44 34 32 29 35 43 45 44 41 43 47 46 48 53 56 61 62 58 59 62 67 65 65 62 64 65 67 65
20 26 34 42 51 56 59 61 66 68 67 64 56 44 36 28 20 22 29 34 37 41 46 51 49 47 48 50 53 59 63 60 62 64 68 68 64 61 56 61 71 71 73
40 48 55 61 65 69 71 71 69 67 60 48 38 29 19 14 18 23 29 34 37 46 48 47 50 50 50 52 54 54 52 52 60 61 61 57 53 48 44 44 44 48 57
56 63 67 68 66 62 59 52 46 39 34 29 23 20 20 20 25 30 35 43 40 39 44 47 49 53 54 54 48 47 49 48 44 45 45 49 47 47 43 43 43 45 46
66 67 62 55 47 38 33 31 29 24 22 19 20 23 25 29 36 41 46 45 42 41 39 41 38 36 36 34 35 29 24 27 31 39 48 55 55 52 58 56 49 46 47
58 49 38 30 26 23 21 20 19 14 15 17 19 22 31 35 41 46 43 38 32 35 36 34 34 36 30 28 28 28 32 35 42 48 56 56 57 60 57 44 39 41 34
32 25 22 21 20 20 19 13 12 12 9 9 15 24 28 34 37 34 31 29 27 28 29 29 29 27 37 41 42 41 43 46 48 53 54 53 56 56 54 44 34 35 33
16 16 18 19 18 18 19 20 15 7 6 13 19 23 28 30 31 30 32 29 27 22 23 22 23 37 47 48 57 64 58 53 52 50 42 52 43 31 28 35 39 39 43
8 15 16 16 17 16 15 16 16 17 17 16 18 20 23 24 29 28 27 27 24 26 18 17 27 41 43 54 55 54 56 70 50 37 38 23 16 9 19 27 33 34 37
7 11 16 16 16 17 17 18 18 20 22 23 20 16 18 23 26 25 24 29 27 27 20 26 27 43 50 56 53 59 65 73 59 43 45 19 17 31 37 20 19 23 27
7 10 13 17 19 19 20 21 25 28 30 31 33 34 33 29 29 32 28 27 21 23 16 24 31 39 49 51 57 56 60 63 73 54 35 33 33 36 6 6 7 12 16
15 19 21 20 24 28 31 33 32 33 35 37 38 35 32 32 34 35 33 31 28 22 19 25 36 39 42 46 51 56 57 59 65 71 79 54 36 26 21 21 14 9 27
23 25 28 30 30 32 37 36 38 40 41 41 41 40 39 41 42 40 38 34 31 27 23 24 31 40 42 47 51 54 56 57 60 67 71 75 68 43 11 20 19 18 30
33 29 27 27 27 28 33 35 38 40 41 42 43 46 48 50 49 47 45 41 37 33 30 30 29 33 38 45 47 47 51 51 54 59 66 73 66 56 14 6 13 21 25
21 23 24 25 25 28 32 33 35 38 41 44 46 47 48 48 49 49 49 48 45 43 41 39 36 37 40 39 36 40 43 46 48 50 53 60 67 69 40 4 8 16 29
25 25 26 27 28 32 32 33 35 37 40 42 44 46 48 49 50 50 50 50 48 48 49 50 49 46 45 42 42 40 40 44 47 49 50 50 56 62 56 32 17 12 21
24 23 25 26 28 31 34 36 37 39 42 43 44 45 46 47 48 50 53 54 53 52 51 51 52 53 53 52 46 41 42 45 46 48 49 48 54 51 52 37 11 14 16
Wind_Direction_500mb
93 89 81 82 62 58 53 58 57 50 34 342 298 296 297 283 277 283 284 262 248 248 254 268 262 254 264 263 259 260 268 273 274 281 282 283 284 286 289 287 282 281 280
104 104 97 94 94 92 92 92 86 67 57 82 105 19 256 260 276 268 293 275 257 265 252 254 258 260 263 257 257 260 263 267 273 278 282 280 277 279 282 281 279 280 278
110 109 105 102 101 89 83 73 44 50 49 59 73 54 9 327 307 271 266 266 264 254 250 253 254 256 259 262 264 268 272 272 273 275 278 279 277 274 275 276 278 277 278
121 113 101 93 83 79 76 75 37 358 318 283 286 288 280 281 267 263 263 264 263 263 264 264 264 266 269 271 272 274 274 273 273 275 279 282 281 281 277 276 276 276 274
104 103 97 72 356 322 300 304 311 305 303 306 303 299 298 297 293 289 286 283 278 275 274 275 275 275 276 277 278 277 277 278 278 278 278 279 281 281 277 279 274 273 268
46 51 58 308 300 301 307 310 309 309 309 308 305 303 298 297 294 288 286 287 286 285 282 280 280 279 278 277 277 278 279 279 279 278 278 278 279 278 278 277 271 269 270
17 19 357 331 323 320 319 317 315 313 313 312 311 308 305 302 299 296 294 289 286 285 284 284 282 281 281 281 281 280 280 278 274 274 274 274 277 278 278 274 269 267 270
344 338 337 331 328 327 325 324 322 319 317 314 311 307 301 298 297 296 294 291 289 289 288 286 286 285 286 287 284 282 281 279 277 276 275 276 276 277 272 271 269 268 270
325 324 319 318 317 319 320 322 321 320 319 316 313 310 303 299 296 292 289 292 293 292 291 290 294 296 296 292 288 286 282 280 281 280 279 276 274 270 271 266 263 262 264
300 306 310 312 315 316 317 316 316 316 315 312 311 308 304 303 298 285 289 292 294 294 292 292 296 297 296 295 292 292 288 286 286 281 279 279 279 276 266 254 254 256 265
312 311 310 310 309 308 307 307 307 307 307 308 307 305 305 302 295 291 294 298 303 305 306 305 303 301 298 294 289 287 286 290 287 285 286 288 291 290 282 264 255 259 266
308 307 306 303 301 299 299 300 301 302 303 303 301 307 311 311 306 299 297 305 313 312 309 310 310 308 301 297 295 291 286 282 283 287 287 284 288 292 297 292 280 270 266
306 305 305 305 303 303 304 304 303 304 304 309 317 321 327 325 320 318 322 323 323 321 323 320 317 314 307 301 298 296 292 289 287 285 286 289 289 289 289 286 277 272 267
309 311 310 309 309 311 312 312 314 318 322 327 330 331 336 334 335 331 331 333 336 332 327 322 319 322 319 315 314 315 313 305 295 294 295 291 298 298 291 284 278 280 271
310 312 314 319 325 328 333 332 331 333 331 332 335 337 334 335 331 337 331 323 326 329 325 334 341 343 357 11 356 332 319 303 295 292 294 294 293 297 299 295 267 269 264
313 319 330 338 341 344 345 354 356 3 353 327 318 324 322 327 329 327 333 338 336 332 336 341 353 358 355 348 343 333 321 312 305 300 297 294 293 291 281 280 259 255 259
329 336 340 341 341 345 348 350 3 19 336 311 316 325 333 332 340 343 348 349 343 334 347 357 355 356 356 358 -0 359 355 347 341 328 333 325 314 302 307 285 258 244 240
1 358 8 13 13 15 18 18 12 3 356 351 349 350 350 351 357 353 353 352 8 9 9 11 360 2 4 9 13 7 8 5 349 346 331 337 339 311 259 277 253 241 241
14 25 31 30 34 40 46 42 34 27 23 18 17 28 18 18 14 10 7 11 19 22 26 11 6 12 15 9 4 11 13 9 13 15 13 324 327 310 329 332 220 213 219
41 40 49 62 67 58 48 43 48 50 44 39 33 26 22 15 19 20 17 16 16 18 358 -0 2 2 9 3 4 6 11 9 16 23 6 357 331 327 18 126 191 217 232
93 90 84 77 75 71 65 61 58 57 54 48 42 33 25 25 27 24 20 20 15 8 354 341 342 344 345 350 354 2 3 6 9 9 14 15 29 18 20 19 158 144 155
97 97 97 91 85 79 73 68 65 60 57 53 49 44 40 38 33 30 26 20 16 10 355 336 326 328 331 333 337 340 351 357 0 1 3 5 17 13 31 40 99 132 143
105 99 91 84 77 75 73 67 65 61 58 55 51 48 45 43 40 36 32 27 21 13 5 356 346 334 315 311 323 327 331 339 347 350 353 358 5 8 33 29 110 137 162
104 95 89 84 80 75 71 66 62 58 55 53 50 48 45 43 41 37 36 33 29 25 20 13 5 355 346 342 336 329 328 327 327 331 341 347 350 2 42 183 200 158 165
98 94 91 86 81 74 70 66 63 59 56 53 50 47 44 42 40 36 33 31 28 25 24 22 17 11 6 354 347 341 335 324 324 322 322 328 339 352 11 65 121 172 182
89 90 89 85 80 75 70 66 62 59 55 51 48 43 40 37 35 33 32 30 27 27 24 22 18 15 14 10 360 344 339 337 328 308 309 315 320 336 355 15 69 177 214
Wind_Speed_850mb
28 26 17 15 15 15 15 19 14 13 12 8 12 16 17 22 32 28 24 36 61 70 62 64 64 68 66 63 52 52 55 56 66 71 67 62 66 64 60 56 51 51 54
34 32 30 26 25 22 21 24 21 17 14 6 3 1 3 10 14 20 24 26 38 44 56 61 69 57 55 53 56 60 60 62 72 82 80 82 82 76 77 75 70 67 64
31 28 27 25 20 18 14 8 7 7 7 9 8 4 5 7 8 15 22 24 27 32 40 48 53 58 62 64 66 67 68 73 80 86 88 82 78 73 75 77 77 72 68
27 22 17 14 10 7 6 4 1 3 3 4 7 9 11 12 18 20 21 25 28 32 35 39 43 47 52 56 60 63 65 66 67 72 78 77 72 64 65 72 84 84 83
13 11 8 4 3 4 7 8 9 10 15 20 23 25 28 33 35 38 41 44 46 49 52 56 60 65 67 69 73 77 78 80 82 86 92 91 88 83 81 76 72 72 77
8 6 3 3 7 11 15 20 24 28 33 36 40 41 42 43 45 49 53 55 57 61 66 68 71 76 80 83 84 82 76 76 81 80 89 90 85 78 76 74 69 74 81
14 12 12 15 20 25 29 34 39 42 45 47 47 47 47 47 50 51 53 56 59 62 65 68 72 73 75 78 79 80 79 76 75 79 88 90 90 86 83 79 78 81 83
16 20 26 29 32 35 39 43 45 46 47 48 49 51 55 56 58 61 63 63 62 59 57 56 58 60 60 62 66 68 69 68 67 67 66 67 67 66 68 72 74 82 87
21 25 29 34 38 41 46 49 48 50 50 51 55 60 59 55 52 49 49 48 48 46 46 47 49 52 50 51 56 61 63 61 57 61 63 65 68 68 59 63 71 68 69
14 21 28 35 42 47 51 52 55 60 63 66 66 58 50 44 34 32 29 35 43 45 44 41 43 47 46 48 53 56 61 62 58 59 62 67 65 65 62 64 65 67 65
20 26 34 42 51 56 59 61 66 68 67 64 56 44 36 28 20 22 29 34 37 41 46 51 49 47 48 50 53 59 63 60 62 64 68 68 64 61 56 61 71 71 73
40 48 55 61 65 69 71 71 69 67 60 48 38 29 19 14 18 23 29 34 37 46 48 47 50 50 50 52 54 54 52 52 60 61 61 57 53 48 44 44 44 48 57
56 63 67 68 66 62 59 52 46 39 34 29 23 20 20 20 25 30 35 43 40 39 44 47 49 53 54 54 48 47 49 48 44 45 45 49 47 47 43 43 43 45 46
66 67 62 55 47 38 33 31 29 24 22 19 20 23 25 29 36 41 46 45 42 41 39 41 38 36 36 34 35 29 24 27 31 39 48 55 55 52 58 56 49 46 47
58 49 38 30 26 23 21 20 19 14 15 17 19 22 31 35 41 46 43 38 32 35 36 34 34 36 30 28 28 28 32 35 42 48 56 56 57 60 57 44 39 41 34
32 25 22 21 20 20 19 13 12 12 9 9 15 24 28 34 37 34 31 29 27 28 29 29 29 27 37 41 42 41 43 46 48 53 54 53 56 56 54 44 34 35 33
16 16 18 19 18 18 19 20 15 7 6 13 19 23 28 30 31 30 32 29 27 22 23 22 23 37 47 48 57 64 58 53 52 50 42 52 43 31 28 35 39 39 43
8 15 16 16 17 16 15 16 16 17 17 16 18 20 23 24 29 28 27 27 24 26 18 17 27 41 43 54 55 54 56 70 50 37 38 23 16 9 19 27 33 34 37
7 11 16 16 16 17 17 18 18 20 22 23 20 16 18 23 26 25 24 29 27 27 20 26 27 43 50 56 53 59 65 73 59 43 45 19 17 31 37 20 19 23 27
7 10 13 17 19 19 20 21 25 28 30 31 33 34 33 29 29 32 28 27 21 23 16 24 31 39 49 51 57 56 60 63 73 54 35 33 33 36 6 6 7 12 16
15 19 21 20 24 28 31 33 32 33 35 37 38 35 32 32 34 35 33 31 28 22 19 25 36 39 42 46 51 56 57 59 65 71 79 54 36 26 21 21 14 9 27
23 25 28 30 30 32 37 36 38 40 41 41 41 40 39 41 42 40 38 34 31 27 23 24 31 40 42 47 51 54 56 57 60 67 71 75 68 43 11 20 19 18 30
33 29 27 27 27 28 33 35 38 40 41 42 43 46 48 50 49 47 45 41 37 33 30 30 29 33 38 45 47 47 51 51 54 59 66 73 66 56 14 6 13 21 25
21 23 24 25 25 28 32 33 35 38 41 44 46 47 48 48 49 49 49 48 45 43 41 39 36 37 40 39 36 40 43 46 48 50 53 60 67 69 40 4 8 16 29
25 25 26 27 28 32 32 33 35 37 40 42 44 46 48 49 50 50 50 50 48 48 49 50 49 46 45 42 42 40 40 44 47 49 50 50 56 62 56 32 17 12 21
24 23 25 26 28 31 34 36 37 39 42 43 44 45 46 47 48 50 53 54 53 52 51 51 52 53 53 52 46 41 42 45 46 48 49 48 54 51 52 37 11 14 16
Wind_Direction_850mb
93 89 81 82 62 58 53 58 57 50 34 342 298 296 297 283 277 283 284 262 248 248 254 268 262 254 264 263 259 260 268 273 274 281 282 283 284 286 289 287 282 281 280
104 104 97 94 94 92 92 92 86 67 57 82 105 19 256 260 276 268 293 275 257 265 252 254 258 260 263 257 257 260 263 267 273 278 282 280 277 279 282 281 279 280 278
110 109 105 102 101 89 83 73 44 50 49 59 73 54 9 327 307 271 266 266 264 254 250 253 254 256 259 262 264 268 272 272 273 275 278 279 277 274 275 276 278 277 278
121 113 101 93 83 79 76 75 37 358 318 283 286 288 280 281 267 263 263 264 263 263 264 264 264 266 269 271 272 274 274 273 273 275 279 282 281 281 277 276 276 276 274
104 103 97 72 356 322 300 304 311 305 303 306 303 299 298 297 293 289 286 283 278 275 274 275 275 275 276 277 278 277 277 278 278 278 278 279 281 281 277 279 274 273 268
46 51 58 308 300 301 307 310 309 309 309 308 305 303 298 297 294 288 286 287 286 285 282 280 280 279 278 277 277 278 279 279 279 278 278 278 279 278 278 277 271 269 270
17 19 357 331 323 320 319 317 315 313 313 312 311 308 305 302 299 296 294 289 286 285 284 284 282 281 281 281 281 280 280 278 274 274 274 274 277 278 278 274 269 267 270
344 338 337 331 328 327 325 324 322 319 317 314 311 307 301 298 297 296 294 291 289 289 288 286 286 285 286 287 284 282 281 279 277 276 275 276 276 277 272 271 269 268 270
325 324 319 318 317 319 320 322 321 320 319 316 313 310 303 299 296 292 289 292 293 292 291 290 294 296 296 292 288 286 282 280 281 280 279 276 274 270 271 266 263 262 264
300 306 310 312 315 316 317 316 316 316 315 312 311 308 304 303 298 285 289 292 294 294 292 292 296 297 296 295 292 292 288 286 286 281 279 279 279 276 266 254 254 256 265
312 311 310 310 309 308 307 307 307 307 307 308 307 305 305 302 295 291 294 298 303 305 306 305 303 301 298 294 289 287 286 290 287 285 286 288 291 290 282 264 255 259 266
308 307 306 303 301 299 299 300 301 302 303 303 301 307 311 311 306 299 297 305 313 312 309 310 310 308 301 297 295 291 286 282 283 287 287 284 288 292 297 292 280 270 266
306 305 305 305 303 303 304 304 303 304 304 309 317 321 327 325 320 318 322 323 323 321 323 320 317 314 307 301 298 296 292 289 287 285 286 289 289 289 289 286 277 272 267
309 311 310 309 309 311 312 312 314 318 322 327 330 331 336 334 335 331 331 333 336 332 327 322 319 322 319 315 314 315 313 305 295 294 295 291 298 298 291 284 278 280 271
310 312 314 319 325 328 333 332 331 333 331 332 335 337 334 335 331 337 331 323 326 329 325 334 341 343 357 11 356 332 319 303 295 292 294 294 293 297 299 295 267 269 264
313 319 330 338 341 344 345 354 356 3 353 327 318 324 322 327 329 327 333 338 336 332 336 341 353 358 355 348 343 333 321 312 305 300 297 294 293 291 281 280 259 255 259
329 336 340 341 341 345 348 350 3 19 336 311 316 325 333 332 340 343 348 349 343 334 347 357 355 356 356 358 -0 359 355 347 341 328 333 325 314 302 307 285 258 244 240
1 358 8 13 13 15 18 18 12 3 356 351 349 350 350 351 357 353 353 352 8 9 9 11 360 2 4 9 13 7 8 5 349 346 331 337 339 311 259 277 253 241 241
14 25 31 30 34 40 46 42 34 27 23 18 17 28 18 18 14 10 7 11 19 22 26 11 6 12 15 9 4 11 13 9 13 15 13 324 327 310 329 332 220 213 219
41 40 49 62 67 58 48 43 48 50 44 39 33 26 22 15 19 20 17 16 16 18 358 -0 2 2 9 3 4 6 11 9 16 23 6 357 331 327 18 126 191 217 232
93 90 84 77 75 71 65 61 58 57 54 48 42 33 25 25 27 24 20 20 15 8 354 341 342 344 345 350 354 2 3 6 9 9 14 15 29 18 20 19 158 144 155
97 97 97 91 85 79 73 68 65 60 57 53 49 44 40 38 33 30 26 20 16 10 355 336 326 328 331 333 337 340 351 357 0 1 3 5 17 13 31 40 99 132 143
105 99 91 84 77 75 73 67 65 61 58 55 51 48 45 43 40 36 32 27 21 13 5 356 346 334 315 311 323 327 331 339 347 350 353 358 5 8 33 29 110 137 162
104 95 89 84 80 75 71 66 62 58 55 53 50 48 45 43 41 37 36 33 29 25 20 13 5 355 346 342 336 329 328 327 327 331 341 347 350 2 42 183 200 158 165
98 94 91 86 81 74 70 66 63 59 56 53 50 47 44 42 40 36 33 31 28 25 24 22 17 11 6 354 347 341 335 324 324 322 322 328 339 352 11 65 121 172 182
89 90 89 85 80 75 70 66 62 59 55 51 48 43 40 37 35 33 32 30 27 27 24 22 18 15 14 10 360 344 339 337 328 308 309 315 320 336 355 15 69 177 214